W9SDA Weather Reports


time (UTC)temp
C
wind
direction
speed
KPH
gust
KPH
rain 1hr
cm
rain 24hr
cm
rain mn
cm
humidity
%
barometer
mb
20260504150109 20 275 9.7 29.0 0.00 0.05 0.00 58 1007.8
20260504081555 15 258 0.0 3.2 0.00 0.05 0.00 82 1008.9
20260504080116 14 0 0.0 3.2 0.00 0.05 0.00 82 1009.0
20260504044553 15 0 0.0 6.4 0.03 0.03 0.03 74 1008.9
20260504043111 16 306 0.0 4.8 0.03 0.03 0.03 70 1008.4
20260504041553 18 0 3.2 16.1 0.00 0.00 0.00 62 1009.7
20260504040116 18 291 0.0 12.9 0.00 0.00 0.00 56 1009.3
20260504034559 18 296 1.6 8.0 0.00 0.00 0.00 55 1009.6
20260504033056 19 311 1.6 12.9 0.00 0.00 0.00 52 1009.8
20260504031556 19 319 3.2 11.3 0.00 0.00 0.00 52 1010.0
20260504030054 19 0 1.6 8.0 0.00 0.00 0.00 52 1010.0
20260504024551 20 0 0.0 11.3 0.00 0.00 0.00 50 1010.0
20260504023059 20 292 0.0 4.8 0.00 0.00 0.00 50 1010.1
20260504021555 20 291 1.6 6.4 0.00 0.00 0.00 48 1009.9
20260504020053 21 0 1.6 9.7 0.00 0.00 0.00 47 1009.8
20260504014604 21 256 3.2 16.1 0.00 0.00 0.00 46 1009.5
20260504013101 21 333 0.0 12.9 0.00 0.00 0.00 45 1009.4
20260504011557 21 306 1.6 14.5 0.00 0.00 0.00 45 1009.3
20260504010057 22 0 1.6 17.7 0.00 0.00 0.00 42 1009.3
20260504004554 22 308 4.8 12.9 0.00 0.00 0.00 40 1009.2
20260504003101 22 316 4.8 14.5 0.00 0.00 0.00 40 1009.3
20260504001609 23 355 6.4 14.5 0.00 0.00 0.00 39 1009.3
20260504000129 23 306 6.4 16.1 0.00 0.00 0.00 37 1009.3
20260503234552 23 303 8.0 17.7 0.00 0.00 0.00 36 1009.3
20260503233054 24 329 9.7 19.3 0.00 0.00 0.00 35 1009.6
20260503231550 24 355 12.9 24.1 0.00 0.00 0.00 35 1009.7
20260503230050 24 294 8.0 27.4 0.00 0.00 0.00 35 1009.7
20260503224549 24 324 8.0 20.9 0.00 0.00 0.00 37 1009.7
20260503223050 23 340 8.0 22.5 0.00 0.00 0.00 37 1010.0
20260503221557 23 321 8.0 17.7 0.00 0.00 0.00 39 1010.1
20260503220052 23 15 8.0 17.7 0.00 0.00 0.00 39 1010.2
20260503214552 23 319 11.3 30.6 0.00 0.00 0.00 37 1010.4
20260503213048 23 300 4.8 27.4 0.00 0.00 0.00 41 1010.5
20260503211552 22 338 8.0 32.2 0.00 0.00 0.00 39 1010.7
20260503210051 22 296 8.0 29.0 0.00 0.00 0.00 40 1010.6
20260503204550 22 175 8.0 24.1 0.00 0.00 0.00 41 1010.9
20260503203049 22 315 8.0 30.6 0.00 0.00 0.00 42 1011.5
20260503201551 21 263 4.8 30.6 0.00 0.00 0.00 44 1011.9
20260503200058 21 317 8.0 29.0 0.00 0.00 0.00 42 1012.2
20260503194553 21 306 11.3 22.5 0.00 0.00 0.00 39 1012.7
20260503193057 21 304 9.7 32.2 0.00 0.00 0.00 43 1013.0
20260503191603 20 329 11.3 35.4 0.00 0.00 0.00 43 1013.4
20260503190053 20 345 14.5 29.0 0.00 0.00 0.00 42 1013.7
20260503184551 19 313 6.4 30.6 0.00 0.00 0.00 46 1014.2
20260503183108 19 294 9.7 32.2 0.00 0.00 0.00 50 1014.6
20260503181618 18 317 8.0 30.6 0.00 0.00 0.00 47 1015.1
20260503180107 18 28 9.7 30.6 0.00 0.00 0.00 43 1015.7
20260503174556 18 317 8.0 29.0 0.00 0.00 0.00 48 1016.0
20260503173057 18 318 11.3 27.4 0.00 0.00 0.00 49 1016.3
20260503171602 17 355 9.7 25.7 0.00 0.00 0.00 49 1016.4